Weather History for KHQZ - April, 2014

Change the Weather History Date:

Friday, April 11, 2014

  Actual Average (KDFW) Record (KDFW)
Temperature  
Mean Temperature 70 °F 64 °F  
Max Temperature 79 °F 75 °F 96 °F (1948)
Min Temperature 61 °F 53 °F 29 °F (1989)
Degree Days  
Heating Degree Days 0 3  
Month to date heating degree days 47  
Since 1 July heating degree days 2240  
Cooling Degree Days 6 3  
Month to date cooling degree days 25  
Year to date cooling degree days 64  
Growing Degree Days 20 (Base 50)    
Moisture  
Dew Point 56 °F    
Average Humidity 67    
Maximum Humidity 82    
Minimum Humidity 48    
Precipitation  
Precipitation 0.00 in 0.09 in 1.38 in (1991)
Month to date precipitation 0.98  
Year to date precipitation 9.26  
Snow  
Snow 0.00 in 0.00 in 0.00 in ()
Month to date snowfall 0.0  
Since 1 July snowfall 1.2  
Snow Depth -    
Sea Level Pressure  
Sea Level Pressure 29.95 in    
Wind  
Wind Speed 15 mph (SSE)    
Max Wind Speed 20 mph    
Max Gust Speed 29 mph    
Visibility 10 miles    
Events      
T = Trace of Precipitation, MM = Missing Value Source: NWS Daily Summary

Daily Weather History Graph

Daily Weather History Graph

Search for Another Location

Airport or City:

Trip Planner

Search our weather history database for the weather conditions in past years. The results will help you decide how hot, cold, wet, or windy it might be!

Date:

Astronomy

Apr. 11, 2014 Rise Set
Actual Time 7:01 AM CDT 7:53 PM CDT
Civil Twilight 6:36 AM CDT 8:18 PM CDT
Nautical Twilight 6:06 AM CDT 8:48 PM CDT
Astronomical Twilight 5:36 AM CDT 9:18 PM CDT
Moon 4:45 PM CDT (4/11) 4:45 AM CDT (4/11)
Length of Visible Light 13h 42m
Length of Day
12h 51m
Waxing Gibbous, 87% of the Moon is Illuminated
Apr 11
Waxing Gibbous
Apr 15
Full
Apr 22
Last Quarter
Apr 29
New
May 6
First Quarter

Hourly Weather History & Observations

Time (CDT) Temp. Heat Index Dew Point Humidity Pressure Visibility Wind Dir Wind Speed Gust Speed Precip Events Conditions
12:15 AM 68.0 °F - 51.3 °F 55% 29.94 in 10.0 mi South 15.0 mph - N/A   Clear
12:35 AM 67.5 °F - 50.9 °F 55% 29.95 in 10.0 mi South 16.1 mph 24.2 mph N/A   Clear
12:55 AM 67.1 °F - 50.7 °F 56% 29.96 in 10.0 mi South 13.8 mph 20.7 mph N/A   Clear
1:15 AM 66.2 °F - 50.2 °F 56% 29.96 in 10.0 mi South 16.1 mph 23.0 mph N/A   Clear
1:35 AM 65.8 °F - 49.8 °F 56% 29.96 in 10.0 mi South 13.8 mph - N/A   Clear
1:55 AM 65.3 °F - 49.5 °F 57% 29.96 in 10.0 mi South 15.0 mph 24.2 mph N/A   Clear
2:15 AM 64.9 °F - 49.8 °F 58% 29.95 in 10.0 mi South 16.1 mph 23.0 mph N/A   Clear
2:35 AM 63.9 °F - 50.4 °F 61% 29.95 in 10.0 mi South 15.0 mph 20.7 mph N/A   Clear
2:55 AM 63.5 °F - 51.4 °F 65% 29.94 in 10.0 mi South 19.6 mph 23.0 mph N/A   Clear
3:15 AM 63.3 °F - 52.3 °F 67% 29.94 in 10.0 mi South 19.6 mph 28.8 mph N/A   Clear
3:35 AM 62.6 °F - 53.2 °F 71% 29.94 in 10.0 mi South 19.6 mph 24.2 mph N/A   Clear
3:55 AM 62.4 °F - 54.5 °F 75% 29.93 in 10.0 mi South 18.4 mph 24.2 mph N/A   Clear
4:15 AM 61.7 °F - 55.0 °F 79% 29.94 in 10.0 mi South 16.1 mph 20.7 mph N/A   Scattered Clouds
4:35 AM 62.1 °F - 55.8 °F 80% 29.94 in 10.0 mi South 13.8 mph 19.6 mph N/A   Mostly Cloudy
4:55 AM 62.6 °F - 56.7 °F 81% 29.94 in 10.0 mi South 15.0 mph 24.2 mph N/A   Overcast
5:15 AM 62.8 °F - 57.2 °F 82% 29.94 in 10.0 mi South 16.1 mph - N/A   Overcast
5:35 AM 63.1 °F - 57.6 °F 82% 29.95 in 10.0 mi South 17.3 mph 21.9 mph N/A   Overcast
6:47 AM 62.6 °F - 57.2 °F 82% 29.96 in 10.0 mi South 17.3 mph 23.0 mph N/A   Overcast
7:55 AM 62.6 °F - 57.2 °F 82% 29.97 in 10.0 mi South 13.8 mph 20.7 mph N/A   Overcast
8:55 AM 64.4 °F - 57.2 °F 77% 30.00 in 10.0 mi South 15.0 mph - N/A   Overcast
9:55 AM 64.4 °F - 57.2 °F 77% 30.02 in 10.0 mi South 11.5 mph 18.4 mph N/A   Overcast
10:55 AM 66.2 °F - 57.2 °F 73% 30.04 in 10.0 mi South 13.8 mph - N/A   Overcast
11:55 AM 69.8 °F - 59.0 °F 68% 30.04 in 10.0 mi SSE 15.0 mph 19.6 mph N/A   Overcast
12:55 PM 71.6 °F - 59.0 °F 64% 30.02 in 10.0 mi SE 16.1 mph - N/A   Overcast
1:55 PM 75.2 °F - 60.8 °F 61% 29.99 in 10.0 mi South 13.8 mph 20.7 mph N/A   Scattered Clouds
2:55 PM 78.8 °F - 60.8 °F 54% 29.96 in 10.0 mi SSE 17.3 mph 20.7 mph N/A   Scattered Clouds
3:55 PM 78.8 °F - 60.8 °F 54% 29.93 in 10.0 mi SSE 17.3 mph 20.7 mph N/A   Scattered Clouds
4:55 PM 78.8 °F - 60.8 °F 54% 29.92 in 10.0 mi SSE 17.3 mph 23.0 mph N/A   Scattered Clouds
5:55 PM 80.6 °F 81.1 °F 59.0 °F 48% 29.91 in 10.0 mi SSE 16.1 mph 23.0 mph N/A   Scattered Clouds
6:55 PM 77.0 °F - 59.0 °F 54% 29.91 in 10.0 mi SSE 11.5 mph - N/A   Scattered Clouds
7:55 PM 73.4 °F - 59.0 °F 61% 29.92 in 10.0 mi SE 9.2 mph - N/A   Clear
9:55 PM 71.2 °F - 59.0 °F 65% 29.94 in 10.0 mi SSE 9.2 mph - N/A   Clear
10:15 PM 70.2 °F - 59.0 °F 68% 29.94 in 10.0 mi SSE 9.2 mph - N/A   Clear
10:35 PM 69.3 °F - 59.0 °F 70% 29.94 in 10.0 mi SSE 8.1 mph - N/A   Clear
10:55 PM 69.4 °F - 59.0 °F 69% 29.94 in 10.0 mi SSE 9.2 mph - N/A   Clear
11:15 PM 68.9 °F - 59.0 °F 71% 29.94 in 10.0 mi SSE 10.4 mph - N/A   Clear
11:35 PM 69.4 °F - 59.0 °F 69% 29.95 in 10.0 mi SSE 11.5 mph 19.6 mph N/A   Clear
11:55 PM 68.2 °F - 59.0 °F 72% 29.95 in 10.0 mi SSE 9.2 mph - N/A   Clear